[[{"header":{"parameterUnit":"m.s-1","parameterCategory":1,"la1":30.2991,"la2":30.254,"lo1":-89.0895,"lo2":-89.0444,"dy":0.0017,"dx":0.0017,"nx":28,"ny":28,"refTime":"2024-09-02T21:00:00:Z","depth":0,"parameterNumber":2,"parameterNumberName":"U-component_of_WINDS"},"data":[0,0,0,0,0,0,0,0,0,0,0,0,0,0,0,0,0,0,0,0,0,0,0,0,0,0,0,0,0,0,0,0,0,0,0,0,0,0,0,0,0,0,0,0,0,0,0,0,0,0,0,0,0,0,0,0,0,0,-1.9837,-1.9838,0,-1.9916,-1.9917,-1.9918,-1.986,-1.9857,-1.9854,-1.9852,-1.9938,-1.9942,-1.9947,0,0,0,0,0,0,0,0,0,0,0,0,0,-1.9641,-1.9645,-1.9837,-1.9838,-1.9839,-1.9916,-1.9917,-1.9918,-1.986,-1.9857,-1.9854,-1.9851,-1.9936,-1.9942,-1.9947,0,0,0,0,0,0,0,0,0,0,0,0,0,-1.9724,-1.9647,-1.9837,-1.9819,-1.9818,-1.9916,-1.9917,-1.9918,-1.9861,-1.9857,-1.9853,-1.9849,-1.9934,-1.9941,-1.9948,-2.0069,0,0,-1.997,-1.9973,0,0,0,0,0,0,0,0,-1.972,-1.9731,-1.9821,-1.982,-1.982,-1.9874,-1.988,-1.9969,-1.9862,-1.9845,-1.9852,-1.9847,-1.992,-1.9928,-1.9951,-2.0073,-2.0077,-1.997,-1.9975,-1.9978,-1.998,0,0,0,0,0,0,0,-1.9714,-1.9728,-1.9868,-1.9822,-1.9822,-1.9809,-1.9817,-1.9896,-1.9903,-1.9846,-1.9842,-1.9852,-1.9919,-1.9945,-1.9953,-2.0078,-1.997,-1.9976,-1.9981,-1.9983,-2.0305,-2.0309,0,0,0,0,0,0,-1.9709,-1.9723,-1.9866,-1.9871,-1.9759,-1.9816,-1.9824,-1.9861,-1.9902,-1.9905,-1.9855,-1.9849,-1.9935,-1.9945,-1.9956,-2.0101,-1.9978,-1.9984,-1.9988,-2.0301,-2.0306,-2.0311,0,0,0,0,0,0,-1.9705,-1.9722,-1.9863,-1.9796,-1.9813,-1.9823,-1.9865,-1.9864,-1.989,-1.9909,-1.991,-1.988,-1.9932,-1.9946,-2.0041,-2.0103,-1.9987,-1.9994,-2.0296,-2.0302,-2.0308,-2.0391,0,0,0,0,0,0,-1.97,-1.9721,-1.9766,-1.9797,-1.9817,-1.9945,-1.9868,-1.9868,-1.9901,-1.9894,-1.9932,-1.9935,-1.993,-2.0031,-2.0048,-2.0111,-1.9999,-2.029,-2.0299,-2.0306,-2.0383,-2.04,-2.0414,0,0,0,0,0,-1.9693,-1.9786,-1.9768,-1.9786,-1.9872,-1.9949,-1.996,-1.9951,-1.9906,-1.9952,-1.9965,-1.9934,-2.0094,-2.0041,-2.006,-2.0126,-2.0286,-2.0296,-2.0306,-2.0376,-2.0397,-2.0414,0,0,0,0,0,0,-1.9763,-1.979,-1.977,-1.9876,-1.9911,-1.9939,-1.9996,-1.9973,-2.0021,-2.0012,-2.0001,-2.001,-2.011,-2.0128,-2.0069,-2.0246,-2.0183,-2.0197,-2.023,-2.025,-2.0265,-2.0259,-2.0005,0,0,0,0,0,-1.979,-1.9849,-1.987,-1.9962,-1.998,-1.9985,-2.0018,-2.0009,-2.0044,-2.0059,-2.0078,-2.0116,-2.0174,-2.0213,-2.0268,-2.0386,-2.0394,-2.044,-2.0456,-2.0469,-2.0481,-2.0546,-2.0567,-2.0342,-2.0342,-2.0342,0,0,-1.9848,-1.987,-1.9908,-1.9977,-2.0002,-2.0065,-1.9998,-2.0066,-2.0113,-2.007,-2.016,-2.0177,-2.0218,-2.0325,-2.0374,-2.0343,-2.0545,-2.0481,-2.0491,-2.0496,-2.0558,-2.058,-2.0599,-2.0349,-2.0348,-2.0347,0,0,-1.9985,-2.0007,-2.0087,-2.0114,-2.0153,-2.0156,-2.0175,-2.0208,-2.0216,-2.0307,-2.0276,-2.0333,-2.0434,-2.0465,-2.0494,-2.0646,-2.062,-2.0665,-2.0746,-2.0809,-2.0827,-2.0843,-2.0898,-2.0918,-2.0677,-2.0677,-2.0677,0,-2.0052,-2.0143,-2.0131,-2.0202,-2.0234,-2.0197,-2.0279,-2.0306,-2.0362,-2.0386,-2.035,-2.0477,-2.0502,-2.0617,-2.0654,-2.0679,-2.0702,-2.066,-2.0825,-2.0841,-2.0855,-2.0908,-2.0929,-2.0682,-2.0682,-2.0681,-2.0681,0,-2.0225,-2.0289,-2.0349,-2.0402,-2.0441,-2.0518,-2.0519,-2.056,-2.0548,-2.0556,-2.0651,-2.068,-2.074,-2.0767,-2.0756,-2.0882,-2.0862,-2.0826,-2.0763,-2.0882,-2.0931,-2.0951,-2.069,-2.0688,-2.0686,-2.0685,0,0,-2.0406,-2.0453,-2.0476,-2.05,-2.0542,-2.0592,-2.0668,-2.0726,-2.0763,-2.0804,-2.0868,-2.0955,-2.0923,-2.0956,-2.0949,-2.1005,-2.1125,-2.0963,-2.0964,-2.0993,-2.1267,-2.1294,-2.1317,-2.1109,-2.1112,-2.1115,-2.1264,0,-2.0546,-2.0676,-2.0668,-2.0791,-2.0851,-2.0818,-2.0885,-2.0919,-2.0929,-2.0983,-2.0995,-2.1057,-2.101,-2.103,-2.1084,-2.1099,-2.118,-2.1088,-2.117,-2.1173,-2.116,-2.1343,-2.137,-2.1509,-2.1283,-2.1286,-2.1289,0,-2.0725,-2.0771,-2.09,-2.0934,-2.0959,-2.1019,-2.1073,-2.1124,-2.1164,-2.1167,-2.1205,-2.1189,-2.1269,-2.1204,-2.1314,-2.1252,-2.1286,-2.1299,-2.1304,-2.1311,-2.1238,-2.1355,-2.1553,-2.1574,-2.1319,-2.1316,-2.1314,0,-2.0846,-2.094,-2.1029,-2.1052,-2.1093,-2.1136,-2.1156,-2.1191,-2.1228,-2.1276,-2.13,-2.1357,-2.1389,-2.1435,-2.1436,-2.1388,-2.1548,-2.1483,-2.1555,-2.1555,-2.159,-2.1588,-2.1796,-2.1612,-2.1611,-2.1611,-2.161,0,-2.1002,-2.1083,-2.1084,-2.1139,-2.1229,-2.1221,-2.1311,-2.1327,-2.1359,-2.1418,-2.1394,-2.145,-2.1448,-2.1506,-2.1508,-2.16,-2.1615,-2.1621,-2.1621,-2.1624,-2.1623,-2.1645,-2.1636,-2.1616,-2.1615,-2.1614,-2.1613,0,-2.1151,-2.1155,-2.1251,-2.1283,-2.1293,-2.1358,-2.1387,-2.144,-2.1449,-2.1525,-2.1542,-2.1556,-2.1624,-2.163,-2.1708,-2.171,-2.1821,-2.181,-2.1808,-2.1806,-2.1878,-2.1871,-2.2108,-2.2139,-2.1934,-2.1936,-2.1938,0,-2.125,-2.1311,-2.135,-2.1387,-2.141,-2.147,-2.1507,-2.1503,-2.1542,-2.1593,-2.1641,-2.1706,-2.1758,-2.1868,-2.1887,-2.1948,-2.1938,-2.2017,-2.1947,-2.1949,-2.194,-2.1937,-2.1944,-2.2031,-2.2033,-2.2035,-2.2036,0,-2.1427,-2.1426,-2.1479,-2.1535,-2.1579,-2.1622,-2.1663,-2.1696,-2.1696,-2.1743,-2.1811,-2.1851,-2.1932,-2.1998,-2.2058,-2.208,-2.206,-2.2058,-2.2078,-2.2081,-2.2078,-2.2082,-2.1845,-2.2053,-2.2051,-2.205,-2.2049,-2.2048,-2.1554,-2.1608,-2.1644,-2.1704,-2.1734,-2.1773,-2.1826,-2.1841,-2.1897,-2.1961,-2.1956,-2.2032,-2.2073,-2.2151,-2.2178,-2.2239,-2.2213,-2.2242,-2.2249,-2.2256,-2.2264,-2.2068,-2.225,-2.225,-2.2249,-2.2249,-2.2249,0,-2.173,-2.1752,-2.1808,-2.1865,-2.1914,-2.1889,-2.1933,-2.1976,-2.2043,-2.2081,-2.2133,-2.2213,-2.2277,-2.2301,-2.2365,-2.2409,-2.2401,-2.2426,-2.2423,-2.2429,-2.2284,-2.226,-2.2431,-2.2431,-2.2431,-2.2431,-2.2431,-2.2431,-2.1827,-2.1916,-2.192,-2.2025,-2.2047,-2.212,-2.2148,-2.2185,-2.2215,-2.2305,-2.2358,-2.2373,-2.2407,-2.2473,-2.2532,-2.2537,-2.2562,-2.2591,-2.2593,-2.2457,-2.2439,-2.2421,-2.2399,-2.2597,-2.2597,-2.2733,-2.2735,-2.2736]},{"header":{"parameterUnit":"m.s-1","parameterCategory":1,"la1":30.2991,"la2":30.254,"lo1":-89.0895,"lo2":-89.0444,"dy":0.0017,"dx":0.0017,"nx":28,"ny":28,"refTime":"2024-09-02T21:00:00:Z","depth":0,"parameterNumber":3,"parameterNumberName":"V-component_of_WINDS"},"data":[0,0,0,0,0,0,0,0,0,0,0,0,0,0,0,0,0,0,0,0,0,0,0,0,0,0,0,0,0,0,0,0,0,0,0,0,0,0,0,0,0,0,0,0,0,0,0,0,0,0,0,0,0,0,0,0,0,0,-0.8021,-0.802,0,-0.7907,-0.7905,-0.7904,-0.7866,-0.7867,-0.7867,-0.7868,-0.7745,-0.7741,-0.7738,0,0,0,0,0,0,0,0,0,0,0,0,0,-0.8201,-0.8198,-0.8021,-0.802,-0.8018,-0.7907,-0.7905,-0.7904,-0.7866,-0.7867,-0.7867,-0.7868,-0.7746,-0.7742,-0.7737,0,0,0,0,0,0,0,0,0,0,0,0,0,-0.8108,-0.8196,-0.8021,-0.7986,-0.7982,-0.7907,-0.7905,-0.7903,-0.7866,-0.7867,-0.7868,-0.7868,-0.7748,-0.7742,-0.7737,-0.7687,0,0,-0.7719,-0.7717,0,0,0,0,0,0,0,0,-0.8113,-0.8101,-0.7993,-0.7988,-0.7983,-0.7902,-0.7924,-0.7831,-0.7866,-0.791,-0.7868,-0.7869,-0.7796,-0.7787,-0.7763,-0.7681,-0.7676,-0.7719,-0.7716,-0.7713,-0.7712,0,0,0,0,0,0,0,-0.812,-0.8106,-0.7976,-0.7991,-0.7985,-0.7974,-0.7962,-0.7906,-0.785,-0.7906,-0.7903,-0.789,-0.7794,-0.7769,-0.776,-0.7674,-0.7719,-0.7714,-0.7711,-0.7709,-0.7544,-0.7543,0,0,0,0,0,0,-0.8133,-0.8112,-0.7979,-0.7972,-0.8052,-0.797,-0.7956,-0.7927,-0.785,-0.784,-0.789,-0.7889,-0.7778,-0.7767,-0.7756,-0.7691,-0.7713,-0.7708,-0.7705,-0.7545,-0.7543,-0.7542,0,0,0,0,0,0,-0.8137,-0.8121,-0.7984,-0.8041,-0.8023,-0.7966,-0.7934,-0.7924,-0.7899,-0.7838,-0.7827,-0.7875,-0.7778,-0.7763,-0.7704,-0.7686,-0.7705,-0.77,-0.7546,-0.7544,-0.7543,-0.7563,0,0,0,0,0,0,-0.8142,-0.8123,-0.8105,-0.8041,-0.802,-0.7936,-0.7933,-0.7922,-0.7891,-0.7888,-0.7822,-0.7811,-0.7778,-0.7713,-0.7699,-0.7679,-0.7696,-0.7547,-0.7545,-0.7543,-0.7564,-0.7562,-0.7561,0,0,0,0,0,-0.8149,-0.8114,-0.8104,-0.8089,-0.7996,-0.7935,-0.7923,-0.7887,-0.7889,-0.787,-0.783,-0.7813,-0.7691,-0.7707,-0.7691,-0.7669,-0.7548,-0.7546,-0.7543,-0.7564,-0.7563,-0.7561,0,0,0,0,0,0,-0.8176,-0.8105,-0.8094,-0.8038,-0.7993,-0.7929,-0.7903,-0.7887,-0.7839,-0.7838,-0.7794,-0.7779,-0.7723,-0.769,-0.7709,-0.7616,-0.7618,-0.7613,-0.764,-0.7638,-0.7637,-0.7645,-0.7691,0,0,0,0,0,-0.8176,-0.8134,-0.8074,-0.803,-0.8009,-0.796,-0.7932,-0.7908,-0.7859,-0.784,-0.7796,-0.7747,-0.7698,-0.7666,-0.7617,-0.7559,-0.7543,-0.7536,-0.7535,-0.7534,-0.7529,-0.7495,-0.749,-0.7535,-0.7535,-0.7535,0,0,-0.8174,-0.8131,-0.8107,-0.8035,-0.7997,-0.7953,-0.7944,-0.7898,-0.7864,-0.7832,-0.7774,-0.774,-0.7683,-0.7624,-0.7595,-0.7594,-0.7514,-0.7531,-0.7531,-0.7526,-0.7492,-0.7488,-0.7484,-0.7533,-0.7533,-0.7534,0,0,-0.8149,-0.8113,-0.8072,-0.8035,-0.7979,-0.7947,-0.7937,-0.7876,-0.7852,-0.7794,-0.7768,-0.7726,-0.7642,-0.7602,-0.7571,-0.753,-0.7512,-0.7516,-0.7509,-0.7476,-0.7472,-0.7469,-0.7453,-0.7448,-0.7511,-0.7511,-0.7511,0,-0.8154,-0.8088,-0.8053,-0.8008,-0.7976,-0.7947,-0.7904,-0.7869,-0.7799,-0.7777,-0.7778,-0.7672,-0.7631,-0.7562,-0.7552,-0.7528,-0.7514,-0.7523,-0.7476,-0.7472,-0.7468,-0.7453,-0.7447,-0.7512,-0.7512,-0.7512,-0.7512,0,-0.8096,-0.8051,-0.8024,-0.796,-0.7925,-0.7881,-0.7837,-0.7806,-0.7785,-0.7752,-0.7692,-0.7642,-0.7582,-0.7564,-0.7542,-0.7491,-0.7492,-0.7485,-0.7486,-0.7465,-0.745,-0.7444,-0.7513,-0.7513,-0.7513,-0.7512,0,0,-0.8084,-0.8001,-0.7992,-0.7962,-0.7898,-0.7861,-0.7815,-0.7758,-0.7732,-0.7684,-0.7643,-0.7573,-0.7566,-0.7531,-0.7504,-0.7475,-0.7444,-0.7471,-0.7469,-0.7467,-0.7382,-0.7388,-0.7381,-0.7432,-0.7431,-0.743,-0.7387,0,-0.805,-0.7969,-0.7936,-0.787,-0.7826,-0.7798,-0.7757,-0.7713,-0.7681,-0.7637,-0.7601,-0.7552,-0.7547,-0.7525,-0.7495,-0.7455,-0.7426,-0.7457,-0.7392,-0.739,-0.7406,-0.7373,-0.7379,-0.734,-0.7381,-0.738,-0.7379,0,-0.7999,-0.7953,-0.7884,-0.7824,-0.7805,-0.777,-0.7714,-0.7674,-0.7622,-0.76,-0.7561,-0.7536,-0.7485,-0.749,-0.7418,-0.7439,-0.741,-0.7386,-0.7384,-0.7375,-0.7383,-0.7363,-0.7327,-0.7321,-0.7369,-0.737,-0.7371,0,-0.7996,-0.7917,-0.7864,-0.784,-0.7769,-0.7745,-0.7714,-0.7663,-0.7631,-0.7582,-0.756,-0.7505,-0.7475,-0.7432,-0.7392,-0.74,-0.7323,-0.7325,-0.7302,-0.7303,-0.7286,-0.7287,-0.7244,-0.7269,-0.7269,-0.727,-0.727,0,-0.7961,-0.7919,-0.7862,-0.783,-0.7781,-0.7742,-0.7695,-0.7661,-0.7616,-0.7575,-0.7547,-0.7508,-0.7459,-0.7413,-0.7382,-0.7326,-0.7312,-0.7292,-0.7284,-0.7294,-0.7296,-0.7273,-0.7274,-0.7268,-0.7268,-0.7269,-0.7269,0,-0.7949,-0.791,-0.785,-0.7789,-0.7773,-0.7739,-0.7686,-0.7652,-0.7619,-0.7568,-0.7553,-0.75,-0.7446,-0.7402,-0.733,-0.7309,-0.7249,-0.7241,-0.7267,-0.7263,-0.7241,-0.7244,-0.7181,-0.717,-0.7204,-0.7204,-0.7204,0,-0.7928,-0.7895,-0.7831,-0.7803,-0.7773,-0.7727,-0.7694,-0.7654,-0.7621,-0.7559,-0.7532,-0.7476,-0.7429,-0.7342,-0.7296,-0.724,-0.7229,-0.7211,-0.7221,-0.7232,-0.7227,-0.723,-0.7225,-0.721,-0.721,-0.721,-0.721,0,-0.7895,-0.7877,-0.7833,-0.7781,-0.7743,-0.77,-0.7655,-0.7633,-0.7584,-0.7548,-0.7493,-0.7456,-0.7384,-0.7327,-0.7267,-0.7233,-0.7212,-0.7207,-0.7199,-0.7208,-0.7224,-0.7214,-0.7263,-0.7209,-0.7209,-0.7209,-0.7209,-0.7209,-0.7877,-0.7846,-0.7796,-0.7747,-0.771,-0.7669,-0.7634,-0.7597,-0.7551,-0.749,-0.7469,-0.7412,-0.7359,-0.7276,-0.7241,-0.7195,-0.7193,-0.7181,-0.7177,-0.7175,-0.7175,-0.7233,-0.7183,-0.7183,-0.7183,-0.7183,-0.7183,0,-0.7842,-0.7808,-0.7763,-0.7703,-0.7664,-0.765,-0.76,-0.7568,-0.7518,-0.7472,-0.7427,-0.7362,-0.7307,-0.7257,-0.72,-0.7172,-0.7161,-0.7158,-0.7158,-0.7151,-0.7181,-0.7193,-0.7167,-0.7167,-0.7167,-0.7167,-0.7167,-0.7167,-0.7818,-0.7765,-0.7742,-0.7669,-0.7635,-0.7581,-0.7553,-0.7514,-0.7477,-0.7407,-0.7363,-0.7331,-0.7282,-0.7221,-0.7169,-0.7155,-0.7135,-0.7134,-0.7118,-0.7147,-0.7149,-0.7151,-0.7162,-0.713,-0.713,-0.7091,-0.7091,-0.7091]}]]